星链-34810 (STARLINK-34810)

导读

STARLINK-34810是美国SpaceX公司星链(Starlink)星座的一员,于2025年7月31日发射升空。作为低轨互联网通信卫星,它延续了星链量产卫星设计,采用平板构型与氪工质霍尔推进器,服役寿命约5-7年。该卫星旨在为全球提供高速宽带互联网接入服务,是SpaceX构建大规模太空通信网络计划的组成部分,进一步扩充了星链星座的在轨规模。

基本信息
目录编号:
65068
目录名称:
STARLINK-34810
国际标识:
2025-165N
轨道中心:
EARTH
卫星名称:
星链-34810
卫星全名:
星链-34810 (STARLINK-34810)
卫星状态:
在轨 (已飞行408 天)
发射日期:
2025-07-31 UTC
国别 :
美国 (US)
星等 :
--
该卫星已列入 空间交会检测服务 Space Conjunction Data Service (SCDS) ,当前飞行风险评估等级: 无高风险
轨道信息
数据来源 国际轨道数据
星历时间: 2026-09-12T14:00:02+0800
7小时前
查看轨道信息
半长轴: 6897.116km
偏心率: 0.0000563
轨道倾角: 97.285°
近地点辐角 160.400°
升交点赤经 326.590°
平近点角 123.781°
近地点: 518.59km
远地点: 519.368km
周期: 95.008分钟
每日圈数: 15.156589
详细信息
固有亮度:
5
最大亮度:
2.5
卫星平台:
Starlink V1.0
覆盖范围:
全球
运营商:
太空探索技术公司
运营商所在国:
美国
制造商(研发单位):
太空探索技术公司
制造商所在国:
美国
使用方式:
暂无
卫星简介
Starlink 计划是 SpaceX 推出的全球卫星互联网项目,通过发射低轨道卫星,为全球尤其是偏远地区提供高速、低延迟的互联网服务。自 2019 年起,Starlink 已部署数千颗卫星,旨在缩小全球数字鸿沟,推动互联网普及。该项目还为军事、航空等行业提供通信支持,带来广泛经济效益。
2D轨道图
3D轨道图
轨道高度分析图
轨道倾角分析图
轨道综合分析图
查看轨道综合分析图
交会数据列表
事件ID 空间交会对象 最接近时刻(TCA) 交会距离 交会风险概率(CRP) 交会风险指数(CRI) 操作
CDM_260914-062905-482606-506821
2026-09-14T
06:29:08+0000
1.077 km
极远距离
2.052883E-5 中风险 0.61
CDM_260914-114805-808406-506821
2026-09-14T
11:48:05+0000
1.248 km
极远距离
1.155014E-5 中风险 0.56
CDM_260914-111706-193306-506821
2026-09-14T
11:17:32+0000
1.722 km
极远距离
2.860701E-6 低风险 0.44
CDM_260913-152004-275806-506821
HXMT (42758)
2026-09-13T
15:20:12+0000
1.895 km
极远距离
2.695562E-6 低风险 0.44
CDM_260913-234606-506806-726021
OBJECT N (67260)
2026-09-13T
23:46:56+0000
1.108 km
极远距离
2.211211E-6 低风险 0.42
CDM_260914-030805-721806-506821
2026-09-14T
03:08:49+0000
2.561 km
极远距离
1.377535E-6 低风险 0.38
CDM_260910-171505-392206-506821
2026-09-10T
17:15:16+0000
2.922 km
极远距离
1.292675E-6 低风险 0.37
CDM_260914-022805-474806-506821
2026-09-14T
02:28:48+0000
2.868 km
极远距离
1.021543E-6 低风险 0.35
CDM_260913-231905-474806-506821
2026-09-13T
23:19:45+0000
2.967 km
极远距离
9.823869E-7 极低风险 0.35
CDM_260913-071306-506806-726021
OBJECT N (67260)
2026-09-13T
07:13:39+0000
1.814 km
极远距离
5.51971E-7 极低风险 0.3
与全量物体交会距离演化趋势
与全量物体交会风险概率演化趋势